[[{"header":{"parameterUnit":"m.s-1","parameterCategory":1,"la1":30.2991,"la2":30.254,"lo1":-89.0895,"lo2":-89.0444,"dy":0.0017,"dx":0.0017,"nx":28,"ny":28,"refTime":"2023-07-25T09:00:00:Z","depth":0,"parameterNumber":2,"parameterNumberName":"U-component_of_WINDS"},"data":[0,0,0,0,0,0,0,0,0,0,0,0,0,0,0,0,0,0,0,0,0,0,0,0,0,0,0,0,0,0,0,0,0,0,0,0,0,0,0,0,0,0,0,0,0,0,0,0,0,0,0,0,0,0,0,0,0,0,-0.7396,-0.7396,0,-0.7362,-0.7362,-0.7361,-0.7325,-0.7324,-0.7324,-0.7323,-0.7287,-0.7286,-0.7286,0,0,0,0,0,0,0,0,0,0,0,0,0,-0.7429,-0.7428,-0.7396,-0.7396,-0.7395,-0.7362,-0.7362,-0.7361,-0.7325,-0.7324,-0.7324,-0.7323,-0.7287,-0.7286,-0.7286,0,0,0,0,0,0,0,0,0,0,0,0,0,-0.7407,-0.7428,-0.7396,-0.7373,-0.7371,-0.7362,-0.7362,-0.7361,-0.7325,-0.7324,-0.7324,-0.7323,-0.7287,-0.7286,-0.7286,-0.7296,0,0,-0.7283,-0.7283,0,0,0,0,0,0,0,0,-0.7408,-0.7405,-0.7377,-0.7375,-0.7372,-0.7347,-0.736,-0.7339,-0.7325,-0.7343,-0.7323,-0.7323,-0.7307,-0.7305,-0.73,-0.7295,-0.7293,-0.7283,-0.7283,-0.7283,-0.7282,0,0,0,0,0,0,0,-0.7409,-0.7407,-0.7383,-0.7377,-0.7374,-0.7364,-0.736,-0.7356,-0.733,-0.7341,-0.7338,-0.7335,-0.7306,-0.7301,-0.7299,-0.7292,-0.7283,-0.7283,-0.7282,-0.7282,-0.7293,-0.7293,0,0,0,0,0,0,-0.7415,-0.7408,-0.7384,-0.7382,-0.7389,-0.7364,-0.736,-0.7356,-0.733,-0.7325,-0.7335,-0.7333,-0.7303,-0.73,-0.7298,-0.7307,-0.7283,-0.7282,-0.7281,-0.7292,-0.7293,-0.7294,0,0,0,0,0,0,-0.7415,-0.7413,-0.7385,-0.7394,-0.739,-0.7365,-0.736,-0.7356,-0.7351,-0.7325,-0.732,-0.7335,-0.7302,-0.7299,-0.7297,-0.7305,-0.7282,-0.7281,-0.7291,-0.7292,-0.7293,-0.7327,0,0,0,0,0,0,-0.7417,-0.7413,-0.7418,-0.7395,-0.739,-0.7386,-0.7361,-0.7355,-0.735,-0.7346,-0.7324,-0.7319,-0.7301,-0.7298,-0.7296,-0.7304,-0.728,-0.729,-0.7292,-0.7293,-0.7325,-0.7329,-0.7333,0,0,0,0,0,-0.7418,-0.7428,-0.7418,-0.7415,-0.7394,-0.7386,-0.7383,-0.7362,-0.7351,-0.7354,-0.7338,-0.732,-0.7305,-0.7298,-0.7296,-0.7303,-0.7289,-0.7291,-0.7293,-0.7323,-0.7329,-0.7333,0,0,0,0,0,0,-0.7453,-0.7425,-0.7413,-0.7417,-0.7404,-0.738,-0.7384,-0.7369,-0.7359,-0.7356,-0.733,-0.7325,-0.7326,-0.7315,-0.7307,-0.7312,-0.7295,-0.7296,-0.7319,-0.7324,-0.7327,-0.733,-0.728,0,0,0,0,0,-0.7461,-0.7457,-0.7433,-0.7438,-0.7433,-0.741,-0.7405,-0.739,-0.7376,-0.737,-0.7354,-0.734,-0.7332,-0.7327,-0.7319,-0.7324,-0.7318,-0.7328,-0.7332,-0.7335,-0.7336,-0.7337,-0.734,-0.7299,-0.7299,-0.7299,0,0,-0.7477,-0.7462,-0.7461,-0.7445,-0.7433,-0.7429,-0.7405,-0.7402,-0.7398,-0.737,-0.7366,-0.7354,-0.7337,-0.7338,-0.7338,-0.7329,-0.7346,-0.7337,-0.734,-0.7339,-0.7339,-0.7343,-0.7346,-0.73,-0.73,-0.73,0,0,-0.7505,-0.7494,-0.7496,-0.7485,-0.7468,-0.7453,-0.7454,-0.7432,-0.7423,-0.742,-0.7398,-0.7393,-0.738,-0.7368,-0.7361,-0.7384,-0.7367,-0.7382,-0.7402,-0.7403,-0.7406,-0.7409,-0.7416,-0.7419,-0.7384,-0.7384,-0.7384,0,-0.7528,-0.7521,-0.75,-0.7498,-0.7491,-0.7465,-0.7467,-0.7457,-0.7438,-0.7434,-0.7424,-0.7407,-0.7394,-0.7391,-0.7397,-0.7392,-0.7392,-0.7384,-0.7408,-0.741,-0.7412,-0.7419,-0.7422,-0.7385,-0.7385,-0.7385,-0.7385,0,-0.7549,-0.7545,-0.7549,-0.7532,-0.7525,-0.7526,-0.7503,-0.75,-0.7485,-0.7471,-0.7467,-0.7451,-0.7438,-0.7436,-0.7422,-0.7432,-0.7426,-0.7413,-0.7395,-0.7419,-0.7424,-0.7427,-0.7388,-0.7387,-0.7387,-0.7386,0,0,-0.7597,-0.7568,-0.757,-0.7561,-0.7541,-0.7537,-0.7535,-0.7523,-0.752,-0.7508,-0.7505,-0.7495,-0.7482,-0.7473,-0.7458,-0.7459,-0.7477,-0.7444,-0.7444,-0.745,-0.7485,-0.7495,-0.7498,-0.7466,-0.7466,-0.7467,-0.7486,0,-0.762,-0.7617,-0.7597,-0.7599,-0.7595,-0.757,-0.7569,-0.7556,-0.7542,-0.7536,-0.752,-0.7513,-0.7497,-0.7491,-0.7491,-0.7475,-0.7483,-0.7473,-0.7462,-0.7462,-0.7466,-0.7501,-0.7512,-0.7531,-0.7488,-0.7489,-0.7489,0,-0.7647,-0.7637,-0.7638,-0.7617,-0.7615,-0.7614,-0.7601,-0.7595,-0.758,-0.757,-0.756,-0.7543,-0.7539,-0.7523,-0.7517,-0.7511,-0.7505,-0.7496,-0.7496,-0.7493,-0.7476,-0.7498,-0.7536,-0.7539,-0.7492,-0.7492,-0.7492,0,-0.768,-0.7667,-0.7666,-0.766,-0.7636,-0.7635,-0.7625,-0.7609,-0.7603,-0.7591,-0.7587,-0.7575,-0.7568,-0.7559,-0.7538,-0.7529,-0.7534,-0.7517,-0.7524,-0.7525,-0.7526,-0.7526,-0.7562,-0.7524,-0.7524,-0.7524,-0.7524,0,-0.7708,-0.7709,-0.7681,-0.768,-0.7681,-0.7658,-0.7659,-0.7647,-0.7632,-0.7628,-0.7607,-0.7603,-0.7576,-0.7569,-0.7553,-0.755,-0.7547,-0.7538,-0.7534,-0.7539,-0.754,-0.7535,-0.7532,-0.7525,-0.7525,-0.7525,-0.7524,0,-0.7745,-0.7726,-0.7723,-0.77,-0.7695,-0.7696,-0.7676,-0.7674,-0.766,-0.7654,-0.7652,-0.7628,-0.7619,-0.7598,-0.7583,-0.7572,-0.7572,-0.7565,-0.7578,-0.7574,-0.7583,-0.7582,-0.7616,-0.7619,-0.758,-0.7581,-0.7581,0,-0.7763,-0.7763,-0.7741,-0.7737,-0.7728,-0.7722,-0.7715,-0.7693,-0.7687,-0.7669,-0.7669,-0.7658,-0.7648,-0.7634,-0.7615,-0.7603,-0.7594,-0.7607,-0.7592,-0.7598,-0.7593,-0.7593,-0.7592,-0.761,-0.7611,-0.7611,-0.7611,0,-0.7796,-0.7787,-0.7779,-0.7768,-0.7761,-0.7751,-0.7739,-0.7737,-0.7712,-0.7706,-0.7696,-0.7689,-0.7673,-0.7662,-0.7647,-0.7636,-0.7619,-0.7616,-0.7617,-0.7623,-0.7629,-0.7625,-0.7585,-0.7615,-0.7615,-0.7615,-0.7614,-0.7614,-0.7824,-0.7823,-0.7807,-0.7798,-0.7788,-0.7777,-0.7774,-0.7759,-0.7751,-0.7737,-0.7725,-0.7716,-0.7699,-0.7678,-0.7668,-0.766,-0.7651,-0.7653,-0.7653,-0.7654,-0.7656,-0.7632,-0.7657,-0.7657,-0.7657,-0.7657,-0.7657,0,-0.7855,-0.7844,-0.7836,-0.7821,-0.7814,-0.78,-0.7787,-0.7782,-0.7775,-0.7761,-0.7752,-0.774,-0.773,-0.771,-0.7697,-0.7695,-0.7686,-0.7692,-0.7691,-0.7688,-0.7665,-0.7664,-0.7699,-0.7699,-0.7699,-0.7698,-0.7698,-0.7698,-0.7871,-0.7868,-0.7857,-0.7849,-0.7837,-0.7829,-0.7822,-0.7812,-0.7801,-0.779,-0.7781,-0.7769,-0.7752,-0.7738,-0.7727,-0.7721,-0.7717,-0.7725,-0.7716,-0.7694,-0.769,-0.7686,-0.7686,-0.7724,-0.7724,-0.7741,-0.7741,-0.7741]},{"header":{"parameterUnit":"m.s-1","parameterCategory":1,"la1":30.2991,"la2":30.254,"lo1":-89.0895,"lo2":-89.0444,"dy":0.0017,"dx":0.0017,"nx":28,"ny":28,"refTime":"2023-07-25T09:00:00:Z","depth":0,"parameterNumber":3,"parameterNumberName":"V-component_of_WINDS"},"data":[0,0,0,0,0,0,0,0,0,0,0,0,0,0,0,0,0,0,0,0,0,0,0,0,0,0,0,0,0,0,0,0,0,0,0,0,0,0,0,0,0,0,0,0,0,0,0,0,0,0,0,0,0,0,0,0,0,0,-2.0556,-2.0557,0,-2.0685,-2.0687,-2.0688,-2.0716,-2.0715,-2.0714,-2.0713,-2.0844,-2.0848,-2.0853,0,0,0,0,0,0,0,0,0,0,0,0,0,-2.0331,-2.0335,-2.0556,-2.0557,-2.0559,-2.0685,-2.0687,-2.0689,-2.0716,-2.0715,-2.0713,-2.0712,-2.0843,-2.0848,-2.0853,0,0,0,0,0,0,0,0,0,0,0,0,0,-2.0441,-2.0336,-2.0555,-2.0588,-2.0592,-2.0685,-2.0687,-2.0689,-2.0716,-2.0715,-2.0713,-2.0712,-2.0841,-2.0847,-2.0854,-2.0924,0,0,-2.0874,-2.0877,0,0,0,0,0,0,0,0,-2.0435,-2.0449,-2.0581,-2.0585,-2.059,-2.0683,-2.0656,-2.0768,-2.0716,-2.0669,-2.0713,-2.0711,-2.0792,-2.0802,-2.083,-2.093,-2.0935,-2.0875,-2.0879,-2.0882,-2.0883,0,0,0,0,0,0,0,-2.0427,-2.0444,-2.0607,-2.0583,-2.0589,-2.0595,-2.0609,-2.0677,-2.0737,-2.0673,-2.0675,-2.069,-2.0794,-2.0823,-2.0833,-2.0937,-2.0875,-2.088,-2.0884,-2.0887,-2.1102,-2.1104,0,0,0,0,0,0,-2.0414,-2.0437,-2.0603,-2.0611,-2.0507,-2.0601,-2.0616,-2.0655,-2.0736,-2.0747,-2.0691,-2.0691,-2.0813,-2.0825,-2.0838,-2.0925,-2.0881,-2.0888,-2.0891,-2.11,-2.1102,-2.1104,0,0,0,0,0,0,-2.0409,-2.0428,-2.0598,-2.0525,-2.0547,-2.0606,-2.0649,-2.0658,-2.0687,-2.075,-2.0761,-2.071,-2.0812,-2.0828,-2.0902,-2.093,-2.0891,-2.0897,-2.1098,-2.1101,-2.1103,-2.1099,0,0,0,0,0,0,-2.0402,-2.0426,-2.0454,-2.0525,-2.0551,-2.066,-2.065,-2.0661,-2.0699,-2.07,-2.0771,-2.0781,-2.0812,-2.0892,-2.0909,-2.0938,-2.0902,-2.1096,-2.1099,-2.1102,-2.1097,-2.1102,-2.1105,0,0,0,0,0,-2.0394,-2.0447,-2.0455,-2.0475,-2.0586,-2.0662,-2.0676,-2.0711,-2.0701,-2.0729,-2.0769,-2.0779,-2.0924,-2.09,-2.0919,-2.095,-2.1094,-2.1098,-2.1102,-2.1096,-2.1101,-2.1105,0,0,0,0,0,0,-2.0376,-2.0457,-2.0466,-2.0544,-2.0596,-2.0666,-2.0702,-2.0715,-2.0771,-2.0769,-2.081,-2.0826,-2.0897,-2.0931,-2.0902,-2.1022,-2.1009,-2.1017,-2.0997,-2.1003,-2.1007,-2.0997,-2.0907,0,0,0,0,0,-2.0381,-2.0436,-2.0504,-2.0566,-2.0591,-2.0642,-2.0676,-2.0699,-2.0754,-2.0776,-2.0822,-2.0875,-2.0933,-2.097,-2.1026,-2.1103,-2.1119,-2.1134,-2.1138,-2.1141,-2.1147,-2.119,-2.1198,-2.1117,-2.1117,-2.1117,0,0,-2.0392,-2.0443,-2.0475,-2.0563,-2.0606,-2.0662,-2.066,-2.072,-2.0762,-2.0785,-2.0858,-2.0893,-2.0955,-2.1031,-2.1066,-2.1061,-2.1173,-2.1146,-2.1148,-2.1152,-2.1195,-2.1203,-2.1209,-2.112,-2.1119,-2.1119,0,0,-2.0441,-2.0485,-2.0541,-2.0585,-2.065,-2.0684,-2.0697,-2.0766,-2.0791,-2.0864,-2.0884,-2.0934,-2.1032,-2.1076,-2.1111,-2.1177,-2.1188,-2.1194,-2.1215,-2.1256,-2.1263,-2.1268,-2.1292,-2.13,-2.12,-2.12,-2.12,0,-2.0446,-2.0531,-2.0568,-2.0627,-2.0665,-2.069,-2.0748,-2.0788,-2.0868,-2.0894,-2.0887,-2.1012,-2.1055,-2.1142,-2.1158,-2.1185,-2.1202,-2.1186,-2.1259,-2.1265,-2.1271,-2.1294,-2.1303,-2.1201,-2.1201,-2.1201,-2.1201,0,-2.0534,-2.0593,-2.0631,-2.0708,-2.0751,-2.0809,-2.0855,-2.0893,-2.0913,-2.0947,-2.1022,-2.1076,-2.1143,-2.1166,-2.1185,-2.1255,-2.125,-2.1251,-2.1238,-2.1278,-2.13,-2.131,-2.1201,-2.1201,-2.1201,-2.1201,0,0,-2.0573,-2.0672,-2.0685,-2.0721,-2.0795,-2.0841,-2.09,-2.0968,-2.1,-2.1055,-2.1105,-2.1189,-2.119,-2.123,-2.1254,-2.1291,-2.134,-2.1287,-2.1289,-2.1295,-2.1421,-2.1419,-2.1429,-2.1348,-2.135,-2.1352,-2.1416,0,-2.063,-2.0737,-2.0773,-2.0861,-2.0916,-2.0941,-2.0993,-2.1044,-2.1078,-2.113,-2.1167,-2.1226,-2.1223,-2.1248,-2.1285,-2.1326,-2.1366,-2.1322,-2.1395,-2.1398,-2.1378,-2.1441,-2.1439,-2.1497,-2.1425,-2.1426,-2.1427,0,-2.0711,-2.0767,-2.0861,-2.093,-2.0954,-2.1,-2.1065,-2.1114,-2.1173,-2.1195,-2.124,-2.1262,-2.1325,-2.1309,-2.1396,-2.1365,-2.1398,-2.1423,-2.1426,-2.1433,-2.1414,-2.1449,-2.1516,-2.1524,-2.1441,-2.144,-2.1439,0,-2.0729,-2.0829,-2.0899,-2.0928,-2.101,-2.1041,-2.1077,-2.1134,-2.1173,-2.1229,-2.1255,-2.1318,-2.1352,-2.1401,-2.1439,-2.1424,-2.1523,-2.151,-2.1543,-2.1542,-2.1562,-2.156,-2.1634,-2.1583,-2.1583,-2.1583,-2.1583,0,-2.0789,-2.0845,-2.0908,-2.0951,-2.1015,-2.1056,-2.1118,-2.1155,-2.1206,-2.1256,-2.1282,-2.1328,-2.1377,-2.143,-2.146,-2.1528,-2.1543,-2.1563,-2.157,-2.156,-2.1558,-2.1581,-2.1578,-2.1586,-2.1585,-2.1585,-2.1584,0,-2.082,-2.0865,-2.0942,-2.1013,-2.1032,-2.1076,-2.1137,-2.118,-2.1215,-2.1278,-2.1296,-2.1352,-2.1415,-2.1459,-2.154,-2.1561,-2.1634,-2.1641,-2.1614,-2.1617,-2.1648,-2.1644,-2.1739,-2.1753,-2.1694,-2.1694,-2.1695,0,-2.0855,-2.0899,-2.0975,-2.1011,-2.1046,-2.1103,-2.1143,-2.1185,-2.1226,-2.1297,-2.133,-2.1396,-2.145,-2.1551,-2.1599,-2.1661,-2.167,-2.1699,-2.1679,-2.1668,-2.167,-2.1666,-2.1671,-2.1701,-2.1702,-2.1702,-2.1702,0,-2.0911,-2.0931,-2.0987,-2.1052,-2.1098,-2.1151,-2.1204,-2.1231,-2.1283,-2.1327,-2.1393,-2.1435,-2.1519,-2.1584,-2.1651,-2.1687,-2.1704,-2.1709,-2.1719,-2.1709,-2.1692,-2.1701,-2.1622,-2.1706,-2.1705,-2.1705,-2.1705,-2.1705,-2.0945,-2.0986,-2.1046,-2.1108,-2.1152,-2.1201,-2.1244,-2.1286,-2.1342,-2.1413,-2.1435,-2.1504,-2.1562,-2.1655,-2.1692,-2.1746,-2.1744,-2.176,-2.1763,-2.1766,-2.1766,-2.1684,-2.1759,-2.1759,-2.1759,-2.1759,-2.1759,0,-2.1003,-2.1043,-2.11,-2.1173,-2.1222,-2.1234,-2.1293,-2.1333,-2.1393,-2.1447,-2.15,-2.1576,-2.1639,-2.1693,-2.1758,-2.1791,-2.18,-2.1807,-2.1804,-2.1813,-2.1765,-2.1749,-2.1798,-2.1798,-2.1798,-2.1798,-2.1798,-2.1798,-2.1038,-2.1108,-2.1135,-2.1227,-2.1267,-2.1334,-2.1367,-2.1413,-2.1456,-2.1539,-2.1592,-2.1627,-2.1681,-2.175,-2.1809,-2.1823,-2.1846,-2.1851,-2.1866,-2.182,-2.1816,-2.1811,-2.1797,-2.1855,-2.1855,-2.191,-2.191,-2.191]}]]